Time,TemperatureF,DewpointF,PressureIn,WindDirection,WindDirectionDegrees,WindSpeedMPH,WindSpeedGustMPH,Humidity,HourlyPrecipIn,Conditions,Clouds,dailyrainin,SoftwareType,DateUTC
2013-03-12 00:02:00,49.0,48.0,29.78,SE,143,7.0,16.0,98,0.00,,,-99.99,,2013-03-12 04:02:00,
2013-03-12 00:13:00,49.0,48.0,29.78,SE,143,7.0,16.0,98,0.00,,,-99.99,,2013-03-12 04:13:00,
2013-03-12 00:22:00,49.0,48.0,29.78,SE,142,6.0,13.0,98,0.00,,,-99.99,,2013-03-12 04:22:00,
2013-03-12 00:32:00,49.0,48.0,29.78,SE,143,5.0,14.0,98,0.01,,,-99.99,,2013-03-12 04:32:00,
2013-03-12 00:43:00,49.0,48.0,29.78,SE,143,5.0,14.0,98,0.01,,,-99.99,,2013-03-12 04:43:00,
2013-03-12 00:52:00,49.0,48.0,29.78,SSE,149,2.0,8.0,98,0.01,,,-99.99,,2013-03-12 04:52:00,
2013-03-12 01:02:00,49.0,49.0,29.78,SE,138,0.0,0.0,99,0.01,,,-99.99,,2013-03-12 05:02:00,
2013-03-12 01:12:00,49.0,49.0,29.78,SE,138,0.0,0.0,99,0.01,,,-99.99,,2013-03-12 05:12:00,
2013-03-12 01:22:00,49.0,49.0,29.78,SE,138,0.0,0.0,99,0.01,,,-99.99,,2013-03-12 05:22:00,
2013-03-12 01:32:00,49.0,49.0,29.76,SE,138,0.0,0.0,99,0.00,,,-99.99,,2013-03-12 05:32:00,
2013-03-12 01:42:00,49.0,49.0,29.76,SE,138,0.0,0.0,99,0.00,,,-99.99,,2013-03-12 05:42:00,
2013-03-12 01:52:00,49.0,49.0,29.76,SE,138,0.0,0.0,100,0.00,,,-99.99,,2013-03-12 05:52:00,
2013-03-12 02:02:00,49.0,49.0,29.76,SE,138,0.0,0.0,100,0.00,,,-99.99,,2013-03-12 06:02:00,
2013-03-12 02:12:00,49.0,49.0,29.76,SE,138,0.0,0.0,100,0.00,,,-99.99,,2013-03-12 06:12:00,
2013-03-12 02:22:00,49.0,49.0,29.76,SE,138,0.0,0.0,100,0.00,,,-99.99,,2013-03-12 06:22:00,
2013-03-12 02:32:00,49.0,49.0,29.75,SE,127,0.0,3.0,100,0.10,,,-99.99,,2013-03-12 06:32:00,
2013-03-12 02:42:00,49.0,49.0,29.75,SE,127,0.0,3.0,100,0.10,,,-99.99,,2013-03-12 06:42:00,
2013-03-12 02:52:00,49.0,49.0,29.75,ESE,123,0.0,0.0,100,0.10,,,-99.99,,2013-03-12 06:52:00,
2013-03-12 03:02:00,49.0,49.0,29.75,ESE,123,0.0,0.0,100,0.10,,,-99.99,,2013-03-12 07:02:00,
2013-03-12 03:12:00,49.0,49.0,29.75,ESE,123,0.0,0.0,100,0.10,,,-99.99,,2013-03-12 07:12:00,
2013-03-12 03:22:00,49.0,49.0,29.75,ESE,123,0.0,0.0,100,0.10,,,-99.99,,2013-03-12 07:22:00,
2013-03-12 03:32:00,49.0,49.0,29.75,ESE,123,0.0,0.0,100,0.12,,,-99.99,,2013-03-12 07:32:00,
2013-03-12 03:42:00,49.0,49.0,29.75,ESE,123,0.0,0.0,100,0.12,,,-99.99,,2013-03-12 07:42:00,
2013-03-12 03:52:00,48.0,48.0,29.78,SE,137,6.0,13.0,100,0.12,,,-99.99,,2013-03-12 07:52:00,
2013-03-12 04:02:00,46.0,46.0,29.78,SE,146,1.0,9.0,100,0.12,,,-99.99,,2013-03-12 08:02:00,
2013-03-12 04:13:00,46.0,46.0,29.78,SE,146,1.0,9.0,100,0.12,,,-99.99,,2013-03-12 08:13:00,
2013-03-12 04:22:00,46.0,46.0,29.78,SW,230,1.0,9.0,100,0.12,,,-99.99,,2013-03-12 08:22:00,
2013-03-12 04:33:00,45.0,45.0,29.78,SW,231,0.0,0.0,100,0.05,,,-99.99,,2013-03-12 08:33:00,
2013-03-12 04:42:00,45.0,45.0,29.78,SW,231,0.0,0.0,100,0.05,,,-99.99,,2013-03-12 08:42:00,
2013-03-12 04:52:00,45.0,45.0,29.78,SW,231,0.0,0.0,100,0.05,,,-99.99,,2013-03-12 08:52:00,
2013-03-12 05:03:00,45.0,45.0,29.78,SW,231,0.0,0.0,99,0.05,,,-99.99,,2013-03-12 09:03:00,
2013-03-12 05:12:00,45.0,45.0,29.78,SW,231,0.0,0.0,99,0.05,,,-99.99,,2013-03-12 09:12:00,
2013-03-12 05:22:00,45.0,45.0,29.78,SW,231,0.0,0.0,99,0.05,,,-99.99,,2013-03-12 09:22:00,
2013-03-12 05:33:00,44.0,44.0,29.79,SW,219,0.0,7.0,99,0.02,,,-99.99,,2013-03-12 09:33:00,
2013-03-12 05:42:00,44.0,44.0,29.79,SW,219,0.0,7.0,99,0.02,,,-99.99,,2013-03-12 09:42:00,
2013-03-12 05:52:00,44.0,44.0,29.79,SW,221,1.0,8.0,99,0.02,,,-99.99,,2013-03-12 09:52:00,
2013-03-12 06:02:00,44.0,44.0,29.78,WSW,242,0.0,3.0,99,0.02,,,-99.99,,2013-03-12 10:02:00,
2013-03-12 06:12:00,44.0,44.0,29.78,WSW,242,0.0,3.0,99,0.02,,,-99.99,,2013-03-12 10:12:00,
2013-03-12 06:22:00,44.0,44.0,29.79,WSW,242,0.0,0.0,99,0.02,,,-99.99,,2013-03-12 10:22:00,
2013-03-12 06:32:00,43.0,43.0,29.80,WSW,242,0.0,0.0,99,0.03,,,-99.99,,2013-03-12 10:32:00,
2013-03-12 06:42:00,43.0,43.0,29.80,WSW,242,0.0,0.0,99,0.03,,,-99.99,,2013-03-12 10:42:00,
2013-03-12 06:53:00,43.0,43.0,29.80,WSW,242,0.0,0.0,99,0.03,,,-99.99,,2013-03-12 10:53:00,
2013-03-12 07:02:00,43.0,43.0,29.80,WSW,242,0.0,0.0,99,0.03,,,-99.99,,2013-03-12 11:02:00,
2013-03-12 07:12:00,43.0,43.0,29.80,WSW,242,0.0,0.0,99,0.03,,,-99.99,,2013-03-12 11:12:00,
2013-03-12 07:22:00,43.0,43.0,29.79,WSW,242,0.0,0.0,99,0.03,,,-99.99,,2013-03-12 11:22:00,
2013-03-12 07:32:00,43.0,43.0,29.79,WSW,242,0.0,0.0,99,0.03,,,-99.99,,2013-03-12 11:32:00,
2013-03-12 07:42:00,43.0,43.0,29.79,WSW,242,0.0,0.0,99,0.03,,,-99.99,,2013-03-12 11:42:00,
2013-03-12 07:52:00,42.0,42.0,29.79,WSW,238,0.0,9.0,99,0.01,,,-99.99,,2013-03-12 11:52:00,
2013-03-12 08:03:00,41.0,41.0,29.80,WSW,241,0.0,7.0,99,0.01,,,-99.99,,2013-03-12 12:03:00,
2013-03-12 08:12:00,41.0,41.0,29.80,WSW,241,0.0,7.0,99,0.01,,,-99.99,,2013-03-12 12:12:00,
2013-03-12 08:22:00,41.0,41.0,29.81,SW,222,3.0,11.0,99,0.01,,,-99.99,,2013-03-12 12:22:00,
2013-03-12 08:32:00,40.0,40.0,29.81,SW,228,0.0,7.0,99,0.04,,,-99.99,,2013-03-12 12:32:00,
2013-03-12 08:42:00,40.0,40.0,29.81,SW,228,0.0,7.0,99,0.04,,,-99.99,,2013-03-12 12:42:00,
2013-03-12 08:52:00,40.0,40.0,29.83,SSW,211,0.0,0.0,99,0.04,,,-99.99,,2013-03-12 12:52:00,
2013-03-12 09:02:00,40.0,39.0,29.83,SSW,211,0.0,0.0,98,0.04,,,-99.99,,2013-03-12 13:02:00,
2013-03-12 09:12:00,40.0,39.0,29.83,SSW,211,0.0,0.0,98,0.04,,,-99.99,,2013-03-12 13:12:00,
2013-03-12 09:22:00,40.0,39.0,29.83,SSW,211,0.0,0.0,98,0.04,,,-99.99,,2013-03-12 13:22:00,
2013-03-12 09:32:00,40.0,39.0,29.83,WSW,238,1.0,11.0,98,0.00,,,-99.99,,2013-03-12 13:32:00,
2013-03-12 09:42:00,40.0,39.0,29.83,WSW,238,1.0,11.0,98,0.00,,,-99.99,,2013-03-12 13:42:00,
2013-03-12 09:52:00,40.0,39.0,29.83,SSW,208,6.0,13.0,98,0.00,,,-99.99,,2013-03-12 13:52:00,
2013-03-12 10:02:00,39.0,38.0,29.83,SW,221,2.0,13.0,98,0.00,,,-99.99,,2013-03-12 14:02:00,
2013-03-12 10:12:00,39.0,38.0,29.83,SW,221,2.0,13.0,98,0.00,,,-99.99,,2013-03-12 14:12:00,
2013-03-12 10:22:00,39.0,39.0,29.83,SSW,210,4.0,10.0,99,0.00,,,-99.99,,2013-03-12 14:22:00,
2013-03-12 10:33:00,39.0,38.0,29.83,SSW,207,2.0,10.0,98,0.00,,,-99.99,,2013-03-12 14:33:00,
2013-03-12 10:42:00,39.0,38.0,29.83,SSW,207,2.0,10.0,98,0.00,,,-99.99,,2013-03-12 14:42:00,
2013-03-12 10:53:00,39.0,38.0,29.83,SW,216,4.0,12.0,98,0.00,,,-99.99,,2013-03-12 14:53:00,
2013-03-12 11:02:00,40.0,39.0,29.83,SW,220,0.0,8.0,98,0.00,,,-99.99,,2013-03-12 15:02:00,
2013-03-12 11:13:00,40.0,39.0,29.83,SW,220,0.0,8.0,98,0.00,,,-99.99,,2013-03-12 15:13:00,
2013-03-12 11:22:00,39.0,38.0,29.83,SW,215,6.0,12.0,97,0.00,,,-99.99,,2013-03-12 15:22:00,
2013-03-12 11:32:00,39.0,38.0,29.83,SW,231,9.0,12.0,97,0.00,,,-99.99,,2013-03-12 15:32:00,
2013-03-12 11:42:00,39.0,38.0,29.83,SW,231,9.0,12.0,97,0.00,,,-99.99,,2013-03-12 15:42:00,
2013-03-12 11:53:00,39.0,38.0,29.83,South,176,5.0,14.0,97,0.00,,,-99.99,,2013-03-12 15:53:00,
2013-03-12 12:02:00,40.0,39.0,29.83,SW,216,7.0,20.0,96,0.00,,,-99.99,,2013-03-12 16:02:00,
2013-03-12 12:12:00,40.0,39.0,29.83,SW,216,7.0,20.0,96,0.00,,,-99.99,,2013-03-12 16:12:00,
2013-03-12 12:22:00,39.0,38.0,29.83,SSW,205,7.0,23.0,95,0.00,,,-99.99,,2013-03-12 16:22:00,
2013-03-12 12:33:00,39.0,38.0,29.83,SSW,202,6.0,18.0,95,0.00,,,-99.99,,2013-03-12 16:33:00,
2013-03-12 12:43:00,39.0,38.0,29.83,SSW,202,6.0,18.0,95,0.00,,,-99.99,,2013-03-12 16:43:00,
2013-03-12 12:53:00,39.0,38.0,29.83,SSW,204,4.0,10.0,95,0.00,,,-99.99,,2013-03-12 16:53:00,
2013-03-12 13:03:00,38.0,37.0,29.83,SSW,211,6.0,16.0,95,0.00,,,-99.99,,2013-03-12 17:03:00,
2013-03-12 13:13:00,38.0,37.0,29.83,SSW,211,6.0,16.0,95,0.00,,,-99.99,,2013-03-12 17:13:00,
2013-03-12 13:22:00,38.0,37.0,29.83,SSW,206,5.0,17.0,95,0.00,,,-99.99,,2013-03-12 17:22:00,
2013-03-12 13:34:00,38.0,36.0,29.83,SSE,156,2.0,9.0,94,0.00,,,-99.99,,2013-03-12 17:34:00,
2013-03-12 13:43:00,38.0,36.0,29.83,SSE,156,2.0,9.0,94,0.00,,,-99.99,,2013-03-12 17:43:00,
2013-03-12 13:53:00,38.0,36.0,29.83,SW,216,5.0,17.0,94,0.00,,,-99.99,,2013-03-12 17:53:00,
2013-03-12 14:03:00,38.0,36.0,29.83,SSW,200,5.0,12.0,93,0.00,,,-99.99,,2013-03-12 18:03:00,
2013-03-12 14:13:00,38.0,36.0,29.83,SSW,202,6.0,16.0,93,0.00,,,-99.99,,2013-03-12 18:13:00,
2013-03-12 14:23:00,38.0,36.0,29.83,SSW,202,6.0,16.0,93,0.00,,,-99.99,,2013-03-12 18:23:00,
2013-03-12 14:33:00,38.0,36.0,29.83,SSW,202,6.0,16.0,93,0.00,,,-99.99,,2013-03-12 18:33:00,
2013-03-12 14:42:00,38.0,36.0,29.83,SSW,202,6.0,16.0,93,0.00,,,-99.99,,2013-03-12 18:42:00,
2013-03-12 14:53:00,38.0,36.0,29.83,SW,219,4.0,16.0,93,0.00,,,-99.99,,2013-03-12 18:53:00,
2013-03-12 15:03:00,38.0,36.0,29.83,SW,219,4.0,16.0,93,0.00,,,-99.99,,2013-03-12 19:03:00,
2013-03-12 15:13:00,38.0,36.0,29.83,SW,219,4.0,16.0,93,0.00,,,-99.99,,2013-03-12 19:13:00,
2013-03-12 15:23:00,38.0,36.0,29.84,SSW,210,6.0,17.0,93,0.00,,,-99.99,,2013-03-12 19:23:00,
2013-03-12 15:33:00,38.0,36.0,29.84,SSW,210,6.0,17.0,93,0.00,,,-99.99,,2013-03-12 19:33:00,
2013-03-12 15:44:00,38.0,36.0,29.84,SSW,210,6.0,17.0,93,0.00,,,-99.99,,2013-03-12 19:44:00,
2013-03-12 15:53:00,37.0,35.0,29.84,SSW,198,6.0,17.0,93,0.00,,,-99.99,,2013-03-12 19:53:00,
2013-03-12 16:02:00,37.0,35.0,29.85,SSW,209,4.0,14.0,94,0.00,,,-99.99,,2013-03-12 20:02:00,
2013-03-12 16:13:00,37.0,35.0,29.85,SSW,209,4.0,14.0,94,0.00,,,-99.99,,2013-03-12 20:13:00,
2013-03-12 16:23:00,37.0,35.0,29.84,SW,220,7.0,17.0,94,0.00,,,-99.99,,2013-03-12 20:23:00,
2013-03-12 16:33:00,37.0,35.0,29.83,SSE,167,3.0,12.0,93,0.00,,,-99.99,,2013-03-12 20:33:00,
2013-03-12 16:42:00,37.0,35.0,29.83,SSE,167,3.0,12.0,93,0.00,,,-99.99,,2013-03-12 20:42:00,
2013-03-12 16:52:00,37.0,35.0,29.84,South,177,6.0,14.0,93,0.00,,,-99.99,,2013-03-12 20:52:00,
2013-03-12 17:03:00,37.0,35.0,29.85,SSW,205,6.0,11.0,94,0.00,,,-99.99,,2013-03-12 21:03:00,
2013-03-12 17:13:00,37.0,35.0,29.85,SSW,205,6.0,11.0,94,0.00,,,-99.99,,2013-03-12 21:13:00,
2013-03-12 17:22:00,36.0,34.0,29.85,SW,221,6.0,14.0,94,0.00,,,-99.99,,2013-03-12 21:22:00,
2013-03-12 17:33:00,37.0,35.0,29.86,SW,217,5.0,12.0,93,0.00,,,-99.99,,2013-03-12 21:33:00,
2013-03-12 17:43:00,37.0,35.0,29.86,SW,217,5.0,12.0,93,0.00,,,-99.99,,2013-03-12 21:43:00,
2013-03-12 17:53:00,37.0,35.0,29.85,SSW,194,5.0,16.0,92,0.00,,,-99.99,,2013-03-12 21:53:00,
2013-03-12 18:02:00,36.0,34.0,29.86,SSW,208,6.0,15.0,92,0.00,,,-99.99,,2013-03-12 22:02:00,
2013-03-12 18:12:00,36.0,34.0,29.86,SSW,208,6.0,15.0,92,0.00,,,-99.99,,2013-03-12 22:12:00,
2013-03-12 18:22:00,36.0,34.0,29.86,SSE,168,4.0,13.0,92,0.00,,,-99.99,,2013-03-12 22:22:00,
2013-03-12 18:33:00,36.0,34.0,29.86,SSE,168,4.0,13.0,92,0.00,,,-99.99,,2013-03-12 22:33:00,
2013-03-12 18:43:00,36.0,34.0,29.86,SSE,168,4.0,13.0,92,0.00,,,-99.99,,2013-03-12 22:43:00,
2013-03-12 18:52:00,36.0,34.0,29.87,SSW,213,4.0,13.0,91,0.00,,,-99.99,,2013-03-12 22:52:00,
2013-03-12 19:03:00,36.0,34.0,29.87,SSW,213,4.0,13.0,91,0.00,,,-99.99,,2013-03-12 23:03:00,
2013-03-12 19:12:00,36.0,34.0,29.87,SSW,213,4.0,13.0,91,0.00,,,-99.99,,2013-03-12 23:12:00,
2013-03-12 19:22:00,36.0,34.0,29.87,SSW,213,4.0,13.0,91,0.00,,,-99.99,,2013-03-12 23:22:00,